EHI
0 0 0 0 0 0 0 0 0 0 0 0 0 1 2 3 7 13 22 39 63 82 92 94 93 90 91 91 88 83 79 79 79 77 73 68 65 58 49 48 55 56 50 45
0 0 0 0 0 0 0 0 0 0 0 0 0 1 3 4 6 12 20 35 57 77 88 92 92 91 91 91 88 83 79 77 77 76 72 67 62 55 48 49 57 58 52 49
0 0 0 0 0 0 0 0 0 0 0 0 0 1 4 6 6 10 17 29 49 70 84 90 91 90 90 90 86 82 78 75 75 74 71 67 65 56 49 52 58 58 52 49
0 0 0 0 0 0 0 0 0 0 0 0 0 1 4 7 7 7 13 24 40 62 80 88 88 88 87 85 82 79 76 74 74 73 71 72 70 61 55 56 58 56 51 47
0 0 0 0 0 0 0 0 0 0 0 0 0 1 3 6 7 6 10 21 35 54 74 84 86 85 83 80 78 79 78 75 74 74 74 75 72 66 61 60 59 55 51 49
0 0 0 0 0 0 0 0 0 0 0 0 0 0 2 5 6 6 10 20 35 51 68 78 82 82 79 77 79 81 80 77 74 75 77 77 73 67 64 62 59 54 50 48
0 0 0 0 0 0 0 0 0 0 0 0 0 1 4 7 8 9 14 23 35 50 63 72 77 79 78 77 79 81 80 77 74 76 79 79 74 66 61 59 57 53 47 43
0 0 0 0 0 0 0 0 0 0 0 0 0 3 7 10 11 13 20 28 36 47 59 68 73 74 75 77 78 78 78 75 74 75 76 77 73 64 57 55 54 50 43 37
0 0 0 0 0 0 0 0 0 0 0 0 1 6 11 12 13 18 24 31 35 42 52 61 65 67 70 73 75 75 75 74 73 72 70 69 67 63 59 57 53 46 38 33
0 0 0 0 0 0 0 0 0 0 0 0 2 7 12 14 16 21 26 30 33 38 46 54 59 63 67 68 69 69 70 71 70 68 64 61 62 63 62 58 51 43 36 33
0 0 0 0 0 0 0 0 0 0 0 0 2 6 11 15 17 20 26 29 31 36 44 51 57 62 63 61 59 60 61 61 62 62 60 57 58 59 57 52 46 39 34 32
0 0 0 0 0 0 0 0 0 0 0 0 2 7 12 14 14 17 24 29 33 37 43 51 59 61 58 54 54 54 53 53 54 56 57 55 54 51 47 46 42 36 30 28
0 0 0 0 0 0 0 0 0 0 0 0 3 7 11 11 11 15 24 32 37 41 47 55 61 61 56 52 53 52 50 49 50 51 51 50 48 44 40 39 38 33 27 24
0 0 0 0 0 0 0 0 0 0 0 0 2 7 10 10 12 18 28 36 40 45 53 58 60 60 57 52 50 50 49 47 46 45 44 43 42 38 34 33 33 29 24 20
0 0 0 0 0 0 0 0 0 0 0 0 3 8 12 14 17 23 32 38 40 44 50 54 55 55 52 48 46 46 46 44 42 39 37 36 35 31 28 27 27 26 21 18
0 0 0 0 0 0 0 0 0 0 0 2 6 11 17 22 26 30 34 38 40 40 43 47 50 49 47 43 40 40 41 40 37 32 30 29 27 26 26 23 22 22 20 18
1 3 2 1 0 0 0 0 0 1 2 5 9 14 22 33 37 37 37 39 42 41 40 45 48 47 43 38 34 33 35 36 32 26 23 23 22 23 24 22 20 21 22 22
3 5 5 2 0 0 0 0 1 4 7 9 13 19 29 40 43 41 41 43 44 43 42 44 45 43 39 35 30 29 30 30 27 22 20 20 20 21 23 22 22 23 24 25
4 6 5 2 0 0 2 3 5 9 13 14 18 25 32 36 37 39 44 47 47 44 44 44 41 40 40 36 31 27 25 24 22 20 19 19 19 20 21 22 23 24 24 24
2 3 3 1 0 2 4 6 8 12 16 20 24 28 31 30 32 38 47 51 48 46 45 44 41 40 41 39 32 27 22 19 18 17 17 16 16 16 18 21 24 24 22 20
1 1 1 0 1 4 7 7 10 16 24 28 29 31 34 36 36 42 48 49 47 44 42 40 38 36 35 34 29 23 18 15 14 13 13 13 13 12 14 18 21 21 19 16
1 2 3 3 4 8 12 13 17 28 35 34 32 35 40 40 39 41 43 43 41 38 35 32 30 28 27 25 22 18 14 12 11 11 11 11 11 9 11 15 17 16 15 14
3 5 8 8 9 13 18 20 25 33 37 33 32 35 37 36 34 34 34 34 32 29 26 23 22 21 20 19 17 15 12 10 11 12 12 12 11 10 11 14 14 12 11 12
5 5 8 10 10 13 16 20 21 26 29 30 32 32 31 29 28 28 27 25 23 20 16 15 15 14 14 14 13 12 10 10 12 14 15 14 12 10 12 14 11 9 8 9
3 3 4 5 6 7 10 13 15 18 24 28 30 29 26 25 24 23 20 17 15 12 9 9 10 10 9 8 8 8 8 9 11 14 15 15 11 8 9 9 6 5 5 4
2 2 2 1 2 3 4 7 11 16 21 26 28 26 23 22 21 18 15 12 10 8 7 6 7 7 6 5 5 6 7 8 9 12 15 13 10 7 6 5 3 2 2 2
Wind_Speed
15 14 16 17 20 20 18 15 13 13 11 13 12 11 11 11 11 11 13 14 15 15 16 16 15 15 14 13 13 12 10 10 8 7 7 6 5 4 4 4 6 7 6 6
15 20 19 18 18 19 20 17 15 9 9 9 10 11 11 10 11 11 11 12 15 16 16 16 15 14 14 14 13 12 11 11 10 7 6 5 5 5 4 3 5 7 6 6
21 15 19 20 18 17 18 16 15 10 7 9 10 12 11 11 9 9 10 10 13 17 17 16 15 14 14 15 15 13 12 11 11 9 7 5 4 3 4 5 5 6 6 7
19 20 16 18 18 17 15 15 15 12 9 8 12 10 9 9 8 9 10 11 12 14 17 16 16 15 15 14 14 12 12 11 11 10 9 9 7 7 6 5 5 6 7 7
17 18 18 17 17 17 14 13 13 12 11 11 12 12 7 7 8 10 11 12 12 13 15 16 16 15 14 15 14 13 12 11 11 10 10 9 8 6 5 5 6 6 6 7
18 17 17 16 15 15 13 12 11 11 11 14 14 13 8 8 12 11 11 11 10 10 11 13 14 13 13 13 13 13 13 11 11 11 10 9 8 7 6 7 6 6 5 6
18 18 17 15 16 16 15 12 9 10 11 13 13 12 6 8 10 8 7 8 9 9 10 11 13 13 12 12 13 13 13 12 11 11 10 9 7 7 7 7 6 6 6 6
17 17 18 15 17 15 17 17 12 10 10 10 11 9 7 10 9 10 8 8 9 9 10 11 12 12 11 11 11 11 12 11 11 10 9 8 8 7 6 7 6 6 5 6
13 16 17 17 16 17 18 18 17 12 11 10 9 7 8 11 11 11 10 9 8 9 9 11 12 12 11 11 11 11 11 10 9 9 8 8 8 7 7 6 7 6 5 5
12 11 15 17 15 18 18 17 12 12 9 10 8 9 8 10 11 10 10 9 9 9 10 10 9 9 9 9 9 10 10 9 8 8 7 7 7 7 6 6 7 6 6 5
16 11 11 16 18 19 18 19 15 11 9 10 6 5 6 7 9 11 11 10 9 9 9 10 9 9 9 9 9 8 8 8 8 8 7 6 6 7 6 6 6 6 6 6
14 10 10 15 16 16 17 17 16 12 10 9 5 3 2 7 8 9 11 10 10 9 9 10 10 9 8 8 8 8 7 7 7 7 6 5 5 6 6 6 6 6 6 6
10 8 9 12 15 17 17 17 16 14 10 10 7 4 2 4 7 9 10 11 11 10 10 10 9 8 7 6 5 6 6 5 5 5 5 5 4 4 5 5 5 5 6 6
7 9 11 11 11 14 16 17 16 15 11 11 9 7 7 6 8 9 10 11 11 11 10 10 8 7 6 6 5 5 4 4 4 4 4 4 4 4 4 4 4 5 5 6
8 11 13 12 11 14 16 16 16 16 15 11 7 10 13 10 9 9 9 11 12 12 11 10 8 7 6 5 4 4 4 4 3 3 2 2 2 2 2 3 4 4 5 6
8 9 11 13 12 13 15 18 18 17 15 11 6 5 9 11 10 11 10 10 11 10 10 9 8 7 5 5 4 3 3 3 3 3 2 2 2 2 2 2 3 3 3 4
8 8 10 10 11 12 15 16 17 15 12 11 9 7 7 11 10 8 8 9 10 9 9 9 8 6 5 4 3 3 3 3 3 2 2 2 2 2 2 2 2 2 2 2
5 6 7 8 9 12 9 10 10 10 9 8 7 9 9 9 10 8 7 9 10 9 8 7 6 6 5 4 3 2 3 3 3 2 2 2 1 1 1 1 1 1 1 2
8 6 7 8 9 8 7 7 8 6 4 6 9 9 10 11 11 8 8 10 10 9 8 6 6 6 5 4 3 2 2 2 2 2 2 1 1 1 1 1 0 1 1 1
10 8 8 7 7 8 5 4 3 5 5 4 8 11 13 12 7 7 10 12 11 10 8 7 7 7 6 4 3 2 2 2 1 1 1 1 0 0 0 0 0 0 1 1
13 11 11 9 6 4 3 5 6 8 5 6 7 9 12 8 7 12 12 12 11 10 9 8 8 7 6 5 4 4 3 3 2 2 1 1 1 1 0 1 1 1 1 2
9 9 9 7 6 3 7 3 1 4 6 6 7 9 13 15 16 15 13 12 10 9 9 9 8 7 7 6 5 5 4 3 2 2 2 3 3 2 2 2 2 1 1 2
2 1 0 2 2 2 4 5 4 4 5 8 9 12 16 16 16 15 12 11 10 10 9 8 8 8 8 7 7 6 5 4 3 4 4 4 4 4 4 3 3 2 2 1
1 1 3 4 4 4 5 5 6 5 6 9 12 13 14 16 15 14 12 10 9 9 9 8 9 9 8 8 8 6 6 6 5 5 5 4 5 5 6 5 5 4 4 3
2 1 2 4 3 3 5 5 6 7 10 13 14 13 14 15 15 13 11 10 9 9 9 9 9 9 9 8 8 8 7 6 5 5 5 5 5 5 6 8 8 7 8 6
2 1 0 3 4 3 5 5 7 10 11 13 14 14 13 14 14 13 11 10 9 10 9 9 9 9 8 8 8 8 7 6 5 5 5 4 4 4 5 6 8 13 11 12
Wind_Direction
205 217 222 222 225 239 248 249 245 238 200 194 215 220 210 205 198 183 178 172 173 171 169 164 165 167 166 164 164 168 173 166 165 171 176 182 180 175 180 174 155 164 173 174
205 222 228 233 232 236 251 259 258 237 202 196 216 227 219 209 206 186 184 177 173 168 166 165 165 168 170 168 169 171 176 174 175 176 177 182 179 180 180 177 156 170 176 175
216 219 219 232 235 234 241 247 252 241 208 207 224 231 225 210 208 190 188 188 179 170 166 163 170 175 177 176 177 180 180 178 181 175 177 184 173 180 181 174 168 181 183 186
228 236 220 220 233 233 236 242 251 250 230 224 225 235 221 205 211 205 194 192 188 170 164 168 175 175 184 182 181 179 177 178 180 179 185 187 185 189 191 180 177 183 190 191
222 226 230 223 227 231 237 239 246 250 246 246 232 237 219 184 210 222 200 194 187 171 167 170 175 176 185 184 179 177 175 179 181 187 191 192 192 190 183 182 181 185 192 196
234 225 228 229 229 230 234 240 238 244 251 243 239 242 221 195 199 213 202 190 172 163 162 165 169 168 178 178 175 175 173 179 183 187 194 199 194 188 188 187 184 188 192 199
231 230 224 221 222 219 221 220 213 217 228 239 236 237 211 173 176 188 195 180 164 160 159 159 161 162 168 172 172 172 173 179 184 188 194 197 197 195 199 197 194 196 196 195
215 221 218 213 218 214 214 218 219 217 223 236 230 230 197 170 169 163 163 169 158 159 155 154 154 156 164 168 167 169 169 176 182 187 191 193 195 204 206 207 203 201 205 200
212 216 208 207 214 222 213 220 230 240 254 244 216 203 183 165 165 157 154 153 150 150 148 149 152 156 162 162 164 167 165 173 181 188 188 194 200 207 209 204 209 211 208 199
245 233 203 196 206 220 225 220 228 238 252 261 235 201 199 173 170 161 153 148 145 151 145 139 143 144 147 148 153 157 161 169 177 184 190 195 199 204 205 208 214 210 207 207
240 242 213 195 203 209 216 220 228 232 235 244 243 226 199 182 175 164 156 150 148 144 137 136 133 130 135 143 147 151 160 169 175 183 192 198 194 200 206 210 214 214 212 205
229 234 224 205 205 217 219 223 223 233 237 245 241 258 177 163 164 157 152 147 140 137 136 133 131 131 135 143 148 151 159 169 175 179 186 193 196 200 204 210 211 208 210 206
224 238 224 208 202 212 220 223 226 231 243 250 238 189 135 131 151 149 146 137 128 125 124 122 121 125 130 131 139 144 152 156 159 168 181 188 199 206 211 213 207 203 206 206
239 238 246 224 203 204 219 223 224 222 230 238 231 156 151 173 160 143 138 132 132 127 122 120 120 122 120 122 131 133 141 143 154 167 184 187 200 209 213 212 207 207 206 205
233 234 247 255 246 216 214 222 226 228 230 235 208 172 165 179 158 141 147 142 135 130 127 126 127 125 126 127 131 136 143 140 152 162 173 176 199 209 211 212 212 210 210 211
225 248 244 251 252 238 220 215 223 229 227 223 202 190 165 153 145 144 151 142 137 133 130 129 128 126 127 129 139 138 142 144 151 163 170 167 184 194 196 208 209 208 210 212
214 235 247 243 240 243 232 218 217 224 221 216 200 185 149 135 134 134 137 134 128 128 127 126 126 125 121 124 126 139 136 145 152 162 167 163 175 189 191 212 205 207 205 201
238 244 247 244 236 234 237 233 218 219 206 196 177 154 140 130 122 117 120 118 114 111 109 112 118 120 120 117 116 127 134 143 155 160 152 142 158 162 164 200 207 207 188 189
216 235 243 235 229 229 236 229 210 197 195 170 144 138 131 124 112 99 101 101 102 103 104 103 103 105 101 101 99 97 117 134 142 140 132 128 122 151 183 201 186 191 176 191
203 217 240 235 229 225 222 255 223 174 180 142 147 151 147 152 154 127 107 100 96 92 88 87 86 87 85 85 91 100 91 94 98 100 98 85 58 310 219 191 165 176 157 162
201 207 226 236 232 247 303 280 253 209 164 149 151 147 151 149 119 117 110 101 97 93 88 80 73 73 70 72 76 74 60 55 44 50 63 57 39 25 85 92 97 125 136 121
204 210 217 223 227 228 341 322 351 79 95 112 119 131 120 112 112 114 109 104 102 96 89 84 76 68 65 64 70 68 49 37 37 58 71 64 50 27 51 63 65 79 119 122
227 264 107 80 119 82 24 56 78 90 101 110 112 114 120 119 118 115 110 104 99 93 85 80 79 71 60 53 54 57 42 32 43 58 62 59 56 42 42 55 53 51 59 81
210 112 107 93 99 91 70 66 78 94 106 107 110 113 117 115 113 111 106 100 94 88 84 80 76 69 60 50 47 46 44 42 51 58 59 60 61 54 48 50 47 46 35 37
337 36 125 131 132 102 85 75 85 97 99 100 104 107 110 112 111 108 103 97 91 85 79 75 74 72 63 52 45 39 39 44 55 60 63 68 70 65 58 56 44 47 46 36
330 346 208 131 134 115 99 85 92 96 102 108 109 107 107 109 110 107 103 98 94 89 84 80 75 72 67 60 52 42 35 36 50 63 62 68 75 76 76 79 71 54 60 56